Regional Weather Roundup
Issued by NWS Midland/Odessa, TX

Home | Current Version | Previous Version | Text Only | Print | Product List | Glossary On
Versions: 1 2 3 4 5 6 7 8 9 10 11 12 13 14 15 16 17 18 19 20 21 22 23 24 25 26 27 28 29 30 31 32 33 34 35 36 37 38 39 40 41 42 43 44 45 46 47 48 49 50
000
ASUS44 KMAF 160810
RWRMAF
MIDLAND AREA WEATHER ROUNDUP
NATIONAL WEATHER SERVICE MIDLAND TX
300 AM CDT WED APR 16 2014

...IN SOUTHWEST TEXAS AND SOUTHEAST NEW MEXICO...

CITY           SKY/WX    TMP DP  RH WIND       PRES   REMARKS
ALPINE         PTCLDY    51  10  19 SW12      30.03F
ANDREWS        FAIR      49  12  22 S16       29.93S
ARTESIA        MOCLDY    48   9  20 S9        29.90S
BIG SPRING     CLEAR     51  15  23 S18       29.97S
CARLSBAD       CLOUDY    49   7  18 S3        29.89F
DRYDEN           N/A     50  15  24 NE3       29.98F
FORT STOCKTON  CLOUDY    50  15  24 SE17      29.95F
GUAD PASS      MOCLDY    52   7  16 W10       29.97F
HOBBS          MOCLDY    48   9  20 S14       29.92F
MARFA          PTCLDY    36   5  27 N5        30.03F WCI  32
MIDLAND AIRPK  PTCLDY    50  13  22 S14G20    29.94F
MIDLAND INTL   PTCLDY    50  14  23 S15       29.94F
ODESSA         PTCLDY    51  12  21 S16       29.94F
PECOS          MOCLDY    47  12  24 E6        29.90F
PRESIDIO       FAIR      58  13  16 N12       29.94S
SEMINOLE       MOCLDY    49  11  21 S13       29.93F
SNYDER         CLEAR     47  13  25 S12       29.95F
WINK           CLOUDY    52  14  22 SE16G23   29.90F
$$
...OTHER STATIONS IN TEXAS...

CITY           SKY/WX    TMP DP  RH WIND       PRES   REMARKS
ABILENE        PTCLDY    50  20  30 S13G20    29.98F
AMARILLO       CLOUDY    50   8  18 S23       29.84F
AUSTIN         CLEAR     35  33  92 SW5       30.13F WCI  31
BROWNSVILLE    CLEAR     49  43  80 E5        30.13F
CORPUS CHRISTI CLEAR     47  38  71 SE7       30.14F
DALLAS FTW     MOCLDY    48  30  49 S9        30.08F
DEL RIO        CLEAR     51  19  28 SE10      30.04F
EL PASO        PTCLDY    56   3  11 N5        29.91S
HOUSTON INT    CLEAR     43  35  73 CALM      30.16F
LUBBOCK        MOCLDY    50   9  19 S21G31    29.90F
SAN ANGELO     CLEAR     50  19  29 S9        30.00F
SAN ANTONIO    CLEAR     45  30  55 SE7       30.12F
WACO           CLEAR     47  31  53 SE10      30.11S
WICHITA FALLS  NOT AVBL
$$
...OTHER LOCATIONS IN NEW MEXICO...

CITY           SKY/WX    TMP DP  RH WIND       PRES   REMARKS
ALAMAGORDO     PTCLDY    48   1  14 S7        29.92F
ALBUQUERQUE    PTCLDY    48   8  19 E6        29.92S
CANNON AFB     PTCLDY    48   5  17 SW10      29.88F
CLOVIS         CLOUDY    46   7  19 SW12      29.90S
HOLLOMAN AFB   PTCLDY    49   5  16 S10       29.91F
ROSWELL        MOCLDY    50   7  17 S17G25    29.87F
RUIDOSO        CLEAR     48   1  14 SW6       30.01F
SANTA FE       CLEAR     45   8  22 W12       29.91F WCI  39
TRUTH OR CONSE PTCLDY    45   6  20 W8        29.94S
TUCUMCARI      PTCLDY    53   7  15 SW18      29.81F
$$



USA.gov is the U.S. government's official web portal to all federal, state and local government web resources and services.